• In Lithuania
  • List of Countries
  • For 7 days
  • Water Temperature
  • Satellite Maps
  • Weather Map
  • Weather Widgets
  • user-avatar
    Login

    Hourly Weather Ellenabad

    Today, 16 January, Tuesday

    Time Temperature Precipitation Wind Pressure Humidity
    00:00 +15°C° 0 mm 2 mps 743 mmHg 20%
    01:00 +14°C° 0 mm 2 mps 743 mmHg 21%
    02:00 +14°C° 0 mm 2 mps 743 mmHg 22%
    03:00 +13°C° 0 mm 2 mps 743 mmHg 23%
    04:00 +13°C° 0 mm 2 mps 743 mmHg 24%
    05:00 +12°C° 0 mm 1 mps 743 mmHg 21%
    06:00 +12°C° 0 mm 1 mps 743 mmHg 21%
    07:00 +13°C° 0 mm 1 mps 743 mmHg 22%
    08:00 +13°C° 0 mm 1 mps 744 mmHg 22%
    09:00 +16°C° 0 mm 1 mps 744 mmHg 20%
    10:00 +20°C° 0 mm 1 mps 744 mmHg 17%
    11:00 +24°C° 0 mm 1 mps 744 mmHg 13%
    12:00 +25°C° 0 mm 1 mps 744 mmHg 12%
    13:00 +26°C° 0 mm 1 mps 743 mmHg 11%
    14:00 +27°C° 0 mm 2 mps 742 mmHg 10%
    15:00 +25°C° 0 mm 1 mps 742 mmHg 11%
    16:00 +24°C° 0 mm 1 mps 741 mmHg 13%
    17:00 +23°C° 0 mm 1 mps 741 mmHg 14%
    18:00 +20°C° 0 mm 2 mps 741 mmHg 14%
    19:00 +19°C° 0 mm 2 mps 741 mmHg 14%
    20:00 +18°C° 0 mm 2 mps 742 mmHg 14%
    21:00 +18°C° 0 mm 3 mps 742 mmHg 16%
    22:00 +17°C° 0 mm 4 mps 741 mmHg 18%
    23:00 +15°C° 0 mm 4 mps 741 mmHg 20%

    Tomorrow, 17 January, Wednesday

    Time Temperature Precipitation Wind Pressure Humidity
    00:00 +14°C° 0 mm 4 mps 741 mmHg 24%
    01:00 +14°C° 0 mm 4 mps 741 mmHg 28%
    02:00 +13°C° 0 mm 4 mps 741 mmHg 31%
    03:00 +13°C° 0 mm 4 mps 741 mmHg 32%
    04:00 +13°C° 0 mm 4 mps 741 mmHg 33%
    05:00 +12°C° 0 mm 4 mps 741 mmHg 35%
    06:00 +13°C° 0 mm 4 mps 741 mmHg 34%
    07:00 +13°C° 0 mm 4 mps 742 mmHg 34%
    08:00 +13°C° 0 mm 4 mps 743 mmHg 34%
    09:00 +17°C° 0 mm 4 mps 743 mmHg 30%
    10:00 +20°C° 0 mm 4 mps 744 mmHg 25%
    11:00 +23°C° 0 mm 4 mps 744 mmHg 21%
    12:00 +25°C° 0 mm 4 mps 744 mmHg 20%
    13:00 +27°C° 0 mm 3 mps 743 mmHg 19%
    14:00 +28°C° 0 mm 2 mps 742 mmHg 18%
    15:00 +27°C° 0 mm 2 mps 742 mmHg 20%
    16:00 +26°C° 0 mm 2 mps 742 mmHg 23%
    17:00 +25°C° 0 mm 1 mps 742 mmHg 25%
    18:00 +23°C° 0 mm 2 mps 742 mmHg 28%
    19:00 +21°C° 0 mm 3 mps 743 mmHg 31%
    20:00 +19°C° 0 mm 3 mps 743 mmHg 33%
    21:00 +18°C° 0 mm 3 mps 743 mmHg 37%
    22:00 +18°C° 0 mm 3 mps 744 mmHg 41%
    23:00 +17°C° 0 mm 3 mps 744 mmHg 44%

    Day after tomorrow, 18 January, Thursday

    Time Temperature Precipitation Wind Pressure Humidity
    00:00 +16°C° 0 mm 3 mps 744 mmHg 46%
    01:00 +16°C° 0 mm 3 mps 744 mmHg 47%
    02:00 +14°C° 0 mm 3 mps 744 mmHg 48%
    03:00 +14°C° 0 mm 3 mps 744 mmHg 49%
    04:00 +14°C° 0 mm 3 mps 744 mmHg 50%
    05:00 +14°C° 0 mm 2 mps 744 mmHg 51%
    06:00 +14°C° 0 mm 2 mps 745 mmHg 50%
    07:00 +15°C° 0 mm 2 mps 745 mmHg 50%
    08:00 +15°C° 0 mm 2 mps 746 mmHg 49%
    09:00 +17°C° 0 mm 2 mps 746 mmHg 43%
    10:00 +20°C° 0 mm 2 mps 747 mmHg 36%
    11:00 +24°C° 0 mm 2 mps 747 mmHg 30%
    12:00 +25°C° 0 mm 2 mps 746 mmHg 27%
    13:00 +26°C° 0 mm 2 mps 745 mmHg 24%
    14:00 +28°C° 0 mm 3 mps 745 mmHg 21%
    15:00 +27°C° 0 mm 2 mps 744 mmHg 23%
    16:00 +26°C° 0 mm 2 mps 744 mmHg 24%
    17:00 +25°C° 0 mm 2 mps 744 mmHg 25%
    18:00 +23°C° 0 mm 2 mps 744 mmHg 27%
    19:00 +20°C° 0 mm 2 mps 745 mmHg 29%
    20:00 +19°C° 0 mm 2 mps 745 mmHg 31%
    21:00 +18°C° 0 mm 2 mps 745 mmHg 32%
    22:00 +17°C° 0 mm 2 mps 745 mmHg 32%
    23:00 +17°C° 0 mm 2 mps 745 mmHg 33%

    19 January, Friday

    Time Temperature Precipitation Wind Pressure Humidity
    00:00 +16°C° 0 mm 2 mps 745 mmHg 34%
    01:00 +15°C° 0 mm 2 mps 745 mmHg 34%
    02:00 +15°C° 0 mm 2 mps 745 mmHg 34%
    03:00 +14°C° 0 mm 2 mps 744 mmHg 35%
    04:00 +14°C° 0 mm 2 mps 744 mmHg 35%
    05:00 +13°C° 0 mm 2 mps 744 mmHg 36%
    06:00 +14°C° 0 mm 2 mps 745 mmHg 35%
    07:00 +14°C° 0 mm 2 mps 745 mmHg 35%
    08:00 +14°C° 0 mm 2 mps 746 mmHg 34%
    09:00 +17°C° 0 mm 2 mps 746 mmHg 30%
    10:00 +20°C° 0 mm 2 mps 746 mmHg 25%
    11:00 +24°C° 0 mm 3 mps 747 mmHg 21%
    12:00 +25°C° 0 mm 3 mps 746 mmHg 20%
    13:00 +26°C° 0 mm 4 mps 745 mmHg 18%
    14:00 +27°C° 0 mm 4 mps 745 mmHg 17%
    15:00 +26°C° 0 mm 4 mps 744 mmHg 17%
    16:00 +25°C° 0 mm 3 mps 744 mmHg 18%
    17:00 +24°C° 0 mm 3 mps 744 mmHg 19%
    18:00 +21°C° 0 mm 3 mps 744 mmHg 19%
    19:00 +19°C° 0 mm 3 mps 745 mmHg 18%
    20:00 +18°C° 0 mm 2 mps 745 mmHg 18%
    21:00 +17°C° 0 mm 2 mps 745 mmHg 18%
    22:00 +16°C° 0 mm 2 mps 745 mmHg 18%
    23:00 +16°C° 0 mm 2 mps 745 mmHg 18%

    20 January, Saturday

    Time Temperature Precipitation Wind Pressure Humidity
    00:00 +15°C° 0 mm 2 mps 745 mmHg 18%
    01:00 +14°C° 0 mm 2 mps 745 mmHg 19%
    02:00 +13°C° 0 mm 3 mps 744 mmHg 20%
    03:00 +12°C° 0 mm 3 mps 744 mmHg 21%
    04:00 +12°C° 0 mm 3 mps 744 mmHg 22%
    05:00 +11°C° 0 mm 3 mps 744 mmHg 23%
    06:00 +12°C° 0 mm 2 mps 744 mmHg 23%
    07:00 +12°C° 0 mm 2 mps 745 mmHg 23%
    08:00 +12°C° 0 mm 2 mps 745 mmHg 24%
    09:00 +14°C° 0 mm 3 mps 745 mmHg 20%
    10:00 +18°C° 0 mm 3 mps 745 mmHg 16%
    11:00 +21°C° 0 mm 3 mps 745 mmHg 13%
    12:00 +23°C° 0 mm 4 mps 744 mmHg 11%
    13:00 +25°C° 0 mm 4 mps 743 mmHg 10%
    14:00 +27°C° 0 mm 4 mps 743 mmHg 9%
    15:00 +26°C° 0 mm 4 mps 742 mmHg 10%
    16:00 +24°C° 0 mm 3 mps 742 mmHg 11%
    17:00 +23°C° 0 mm 2 mps 742 mmHg 12%
    18:00 +21°C° 0 mm 2 mps 742 mmHg 13%
    19:00 +19°C° 0 mm 2 mps 742 mmHg 13%
    20:00 +18°C° 0 mm 2 mps 742 mmHg 13%
    21:00 +17°C° 0 mm 2 mps 742 mmHg 13%
    22:00 +16°C° 0 mm 2 mps 742 mmHg 13%
    23:00 +16°C° 0 mm 2 mps 742 mmHg 13%

    21 January, Sunday

    Time Temperature Precipitation Wind Pressure Humidity
    00:00 +15°C° 0 mm 2 mps 742 mmHg 13%
    01:00 +14°C° 0 mm 2 mps 742 mmHg 14%
    02:00 +13°C° 0 mm 2 mps 742 mmHg 14%
    03:00 +13°C° 0 mm 2 mps 742 mmHg 15%
    04:00 +12°C° 0 mm 1 mps 741 mmHg 16%
    05:00 +12°C° 0 mm 1 mps 741 mmHg 16%
    06:00 +12°C° 0 mm 1 mps 742 mmHg 17%
    07:00 +13°C° 0 mm 1 mps 742 mmHg 18%
    08:00 +13°C° 0 mm 1 mps 743 mmHg 19%
    09:00 +16°C° 0 mm 1 mps 743 mmHg 16%
    10:00 +20°C° 0 mm 1 mps 743 mmHg 13%
    11:00 +23°C° 0 mm 2 mps 744 mmHg 10%
    12:00 +24°C° 0 mm 2 mps 743 mmHg 10%
    13:00 +26°C° 0 mm 2 mps 743 mmHg 9%
    14:00 +27°C° 0 mm 2 mps 742 mmHg 8%
    15:00 +26°C° 0 mm 2 mps 742 mmHg 9%
    16:00 +24°C° 0 mm 2 mps 741 mmHg 11%
    17:00 +23°C° 0 mm 1 mps 741 mmHg 12%
    18:00 +21°C° 0 mm 1 mps 741 mmHg 13%
    19:00 +20°C° 0 mm 1 mps 742 mmHg 13%
    20:00 +18°C° 0 mm 1 mps 742 mmHg 14%
    21:00 +16°C° 0 mm 1 mps 742 mmHg 14%
    22:00 +15°C° 0 mm 0 mps 742 mmHg 15%
    23:00 +14°C° 0 mm 0 mps 742 mmHg 15%
    Show more